| time (UTC) | temp F | wind direction | speed MPH | gust MPH | rain 1hr in | rain 24hr in | rain mn in | humidity % | barometer mb |
| 20260901181506 | 52 | 226 | 1.0 | 0.0 | 0.00 | 0.00 | 0.28 | 88 | 1006.3 |
| 20260901180005 | 52 | 227 | 1.0 | 0.0 | 0.00 | 0.00 | 0.28 | 88 | 1006.2 |
| 20260901174504 | 52 | 242 | 1.0 | 0.0 | 0.00 | 0.00 | 0.28 | 88 | 1006.3 |
| 20260901173003 | 52 | 219 | 2.0 | 0.0 | 0.00 | 0.00 | 0.28 | 88 | 1006.2 |
| 20260901171503 | 53 | 224 | 0.0 | 0.0 | 0.00 | 0.00 | 0.28 | 89 | 1006.1 |
| 20260901170001 | 53 | 223 | 0.0 | 0.0 | 0.00 | 0.00 | 0.28 | 89 | 1006.1 |
| 20260901164502 | 53 | 223 | 2.0 | 0.0 | 0.00 | 0.00 | 0.28 | 89 | 1006.1 |
| 20260901163100 | 53 | 231 | 2.0 | 0.0 | 0.00 | 0.00 | 0.28 | 89 | 1006.0 |
| 20260901161559 | 53 | 227 | 2.0 | 0.0 | 0.00 | 0.00 | 0.28 | 89 | 1006.1 |
| 20260901160115 | 53 | 227 | 3.0 | 0.0 | 0.00 | 0.00 | 0.28 | 90 | 1005.9 |
| 20260901154558 | 53 | 223 | 1.0 | 0.0 | 0.00 | 0.00 | 0.28 | 91 | 1006.0 |
| 20260901153114 | 53 | 225 | 1.0 | 0.0 | 0.00 | 0.00 | 0.28 | 91 | 1006.0 |
| 20260901151557 | 53 | 230 | 1.0 | 0.0 | 0.00 | 0.00 | 0.28 | 91 | 1005.8 |
| 20260901150111 | 53 | 227 | 1.0 | 0.0 | 0.00 | 0.00 | 0.28 | 91 | 1005.9 |
| 20260901144600 | 53 | 232 | 1.0 | 0.0 | 0.00 | 0.00 | 0.28 | 90 | 1005.9 |
| 20260901143113 | 53 | 281 | 1.0 | 0.0 | 0.00 | 0.00 | 0.27 | 90 | 1005.9 |
| 20260901141603 | 53 | 279 | 3.0 | 0.0 | 0.00 | 0.00 | 0.27 | 90 | 1005.9 |
| 20260901140131 | 53 | 298 | 2.0 | 0.0 | 0.00 | 0.00 | 0.27 | 91 | 1005.8 |
| 20260901134554 | 53 | 297 | 2.0 | 0.0 | 0.00 | 0.00 | 0.27 | 91 | 1005.8 |
| 20260901133055 | 53 | 302 | 1.0 | 0.0 | 0.00 | 0.00 | 0.27 | 91 | 1005.8 |
| 20260901131553 | 53 | 307 | 2.0 | 0.0 | 0.00 | 0.00 | 0.27 | 90 | 1005.8 |
| 20260901130052 | 53 | 285 | 3.0 | 0.0 | 0.00 | 0.00 | 0.27 | 90 | 1005.8 |
| 20260901124556 | 53 | 301 | 2.0 | 0.0 | 0.00 | 0.00 | 0.27 | 90 | 1005.7 |
| 20260901123052 | 53 | 315 | 2.0 | 0.0 | 0.00 | 0.00 | 0.27 | 92 | 1005.7 |
| 20260901121553 | 53 | 235 | 1.0 | 0.0 | 0.00 | 0.00 | 0.27 | 93 | 1005.7 |
| 20260901120048 | 52 | 291 | 1.0 | 0.0 | 0.00 | 0.00 | 0.27 | 94 | 1005.5 |
| 20260901114550 | 52 | 293 | 1.0 | 0.0 | 0.00 | 0.00 | 0.27 | 94 | 1005.5 |
| 20260901113046 | 52 | 305 | 1.0 | 0.0 | 0.00 | 0.00 | 0.27 | 95 | 1005.4 |
| 20260901111545 | 52 | 232 | 2.0 | 0.0 | 0.00 | 0.00 | 0.27 | 95 | 1005.2 |
| 20260901110044 | 51 | 225 | 3.0 | 0.0 | 0.00 | 0.00 | 0.27 | 95 | 1005.2 |
| 20260901104545 | 51 | 218 | 4.0 | 0.0 | 0.00 | 0.00 | 0.27 | 94 | 1005.1 |
| 20260901103042 | 51 | 241 | 4.0 | 0.0 | 0.00 | 0.00 | 0.27 | 94 | 1005.0 |
| 20260901101556 | 51 | 227 | 3.0 | 0.0 | 0.00 | 0.00 | 0.27 | 93 | 1004.8 |
| 20260901100046 | 52 | 267 | 2.0 | 0.0 | 0.00 | 0.00 | 0.27 | 93 | 1004.5 |
| 20260901094541 | 52 | 287 | 2.0 | 0.0 | 0.00 | 0.00 | 0.27 | 93 | 1004.5 |
| 20260901093034 | 52 | 220 | 1.0 | 0.0 | 0.00 | 0.00 | 0.27 | 93 | 1004.2 |
| 20260901091548 | 52 | 298 | 2.0 | 0.0 | 0.00 | 0.00 | 0.27 | 93 | 1004.1 |
| 20260901090036 | 52 | 306 | 3.0 | 0.0 | 0.00 | 0.00 | 0.27 | 93 | 1004.0 |
| 20260901084538 | 52 | 291 | 2.0 | 0.0 | 0.00 | 0.00 | 0.27 | 93 | 1004.0 |
| 20260901083039 | 52 | 292 | 3.0 | 0.0 | 0.00 | 0.00 | 0.27 | 94 | 1003.8 |
| 20260901081527 | 52 | 304 | 3.0 | 0.0 | 0.00 | 0.00 | 0.27 | 94 | 1003.9 |
| 20260901080058 | 52 | 296 | 2.0 | 0.0 | 0.00 | 0.00 | 0.26 | 94 | 1003.6 |
| 20260901074523 | 52 | 298 | 1.0 | 0.0 | 0.00 | 0.00 | 0.26 | 94 | 1003.4 |
| 20260901073023 | 52 | 311 | 2.0 | 0.0 | 0.00 | 0.00 | 0.26 | 94 | 1003.3 |
| 20260901071521 | 52 | 302 | 3.0 | 0.0 | 0.00 | 0.00 | 0.26 | 94 | 1003.2 |
| 20260901070028 | 52 | 294 | 3.0 | 0.0 | 0.00 | 0.00 | 0.26 | 95 | 1002.9 |
| 20260901064518 | 52 | 289 | 3.0 | 0.0 | 0.00 | 0.00 | 0.26 | 95 | 1002.7 |
| 20260901063018 | 53 | 219 | 0.0 | 0.0 | 0.00 | 0.00 | 0.26 | 96 | 1002.5 |
| 20260901061517 | 53 | 219 | 0.0 | 0.0 | 0.00 | 0.00 | 0.26 | 96 | 1002.4 |
| 20260901060016 | 53 | 220 | 0.0 | 0.0 | 0.00 | 0.00 | 0.25 | 96 | 1002.4 |
| 20260901054515 | 53 | 229 | 1.0 | 0.0 | 0.00 | 0.00 | 0.24 | 96 | 1002.2 |
| 20260901053017 | 53 | 196 | 1.0 | 0.0 | 0.00 | 0.00 | 0.23 | 95 | 1002.2 |
| 20260901051513 | 53 | 171 | 0.0 | 0.0 | 0.00 | 0.00 | 0.21 | 95 | 1002.1 |
| 20260901050113 | 53 | 171 | 0.0 | 0.0 | 0.00 | 0.00 | 0.20 | 95 | 1002.1 |
| 20260901044513 | 53 | 171 | 0.0 | 0.0 | 0.00 | 0.00 | 0.19 | 95 | 1002.1 |
| 20260901043024 | 53 | 171 | 0.0 | 0.0 | 0.00 | 0.00 | 0.18 | 95 | 1002.0 |
| 20260901041515 | 53 | 171 | 0.0 | 0.0 | 0.00 | 0.00 | 0.17 | 95 | 1002.1 |
| 20260901040012 | 53 | 171 | 0.0 | 0.0 | 0.00 | 0.00 | 0.16 | 95 | 1002.1 |
| 20260901034514 | 53 | 171 | 0.0 | 0.0 | 0.00 | 0.00 | 0.15 | 95 | 1002.1 |
| 20260901033017 | 53 | 171 | 0.0 | 0.0 | 0.00 | 0.00 | 0.14 | 95 | 1002.1 |
| 20260901031509 | 53 | 171 | 0.0 | 0.0 | 0.00 | 0.00 | 0.13 | 95 | 1002.0 |
| 20260901030014 | 53 | 171 | 0.0 | 0.0 | 0.00 | 0.00 | 0.11 | 95 | 1002.1 |
| 20260901024508 | 53 | 171 | 0.0 | 0.0 | 0.00 | 0.00 | 0.10 | 95 | 1002.0 |
| 20260901023007 | 53 | 171 | 0.0 | 0.0 | 0.00 | 0.00 | 0.09 | 95 | 1002.1 |
| 20260901021507 | 53 | 171 | 0.0 | 0.0 | 0.00 | 0.00 | 0.08 | 95 | 1002.1 |
| 20260901020011 | 53 | 171 | 0.0 | 0.0 | 0.00 | 0.00 | 0.06 | 95 | 1002.2 |
| 20260901014505 | 53 | 171 | 0.0 | 0.0 | 0.00 | 0.00 | 0.06 | 95 | 1002.2 |
| 20260901013007 | 53 | 171 | 0.0 | 0.0 | 0.00 | 0.00 | 0.04 | 95 | 1002.1 |
| 20260901011503 | 53 | 171 | 0.0 | 0.0 | 0.00 | 0.00 | 0.02 | 94 | 1002.1 |
| 20260901010002 | 53 | 171 | 0.0 | 0.0 | 0.00 | 0.00 | 0.02 | 94 | 1002.2 |
| 20260901004501 | 53 | 171 | 0.0 | 0.0 | 0.00 | 0.00 | 0.01 | 95 | 1002.2 |
| 20260901003101 | 53 | 171 | 0.0 | 0.0 | 0.00 | 0.00 | 0.01 | 95 | 1002.2 |
| 20260901001605 | 53 | 171 | 0.0 | 0.0 | 0.00 | 0.00 | 0.01 | 94 | 1002.4 |
| 20260901000057 | 53 | 171 | 0.0 | 0.0 | 0.00 | 0.00 | 0.00 | 94 | 1002.5 |
| 20260831234557 | 53 | 171 | 0.0 | 0.0 | 0.00 | 0.00 | 0.00 | 94 | 1002.5 |
| 20260831233055 | 53 | 171 | 0.0 | 0.0 | 0.00 | 0.00 | 0.00 | 94 | 1002.6 |
| 20260831231604 | 53 | 171 | 0.0 | 0.0 | 0.00 | 0.00 | 0.00 | 94 | 1002.6 |
| 20260831230056 | 53 | 171 | 0.0 | 0.0 | 0.00 | 0.00 | 0.00 | 94 | 1002.8 |
| 20260831224622 | 53 | 171 | 0.0 | 0.0 | 0.00 | 0.00 | 0.00 | 94 | 1002.8 |
| 20260831223049 | 53 | 171 | 0.0 | 0.0 | 0.00 | 0.00 | 0.00 | 94 | 1002.9 |
| 20260831221553 | 52 | 171 | 0.0 | 0.0 | 0.00 | 0.00 | 0.00 | 94 | 1003.0 |
| 20260831220050 | 52 | 171 | 0.0 | 0.0 | 0.00 | 0.00 | 0.00 | 93 | 1003.2 |
| 20260831214548 | 52 | 171 | 0.0 | 0.0 | 0.00 | 0.00 | 0.06 | 93 | 1003.3 |
| 20260831213044 | 52 | 171 | 0.0 | 0.0 | 0.00 | 0.00 | 0.06 | 93 | 1003.3 |
| 20260831211601 | 52 | 171 | 0.0 | 0.0 | 0.00 | 0.00 | 0.06 | 92 | 1003.2 |
| 20260831210041 | 52 | 171 | 0.0 | 0.0 | 0.00 | 0.00 | 0.06 | 92 | 1003.4 |
| 20260831204540 | 53 | 171 | 0.0 | 0.0 | 0.00 | 0.00 | 0.06 | 92 | 1003.3 |
| 20260831203044 | 53 | 171 | 0.0 | 0.0 | 0.00 | 0.00 | 0.06 | 91 | 1003.5 |
| 20260831201536 | 54 | 171 | 0.0 | 0.0 | 0.00 | 0.00 | 0.06 | 91 | 1003.6 |
| 20260831200035 | 54 | 171 | 0.0 | 0.0 | 0.00 | 0.00 | 0.06 | 91 | 1003.4 |
| 20260831194551 | 54 | 171 | 0.0 | 0.0 | 0.00 | 0.00 | 0.06 | 90 | 1003.5 |
| 20260831193047 | 54 | 171 | 0.0 | 0.0 | 0.00 | 0.00 | 0.06 | 90 | 1003.6 |
| 20260831191545 | 55 | 171 | 0.0 | 0.0 | 0.00 | 0.00 | 0.06 | 89 | 1003.6 |
| 20260831190033 | 56 | 171 | 0.0 | 0.0 | 0.00 | 0.00 | 0.06 | 89 | 1003.4 |
| 20260831184533 | 56 | 171 | 0.0 | 0.0 | 0.00 | 0.00 | 0.06 | 88 | 1003.5 |
| 20260831183033 | 56 | 172 | 0.0 | 0.0 | 0.00 | 0.00 | 0.06 | 88 | 1003.6 |